Weather History for Dauphin, MB

Change the Weather History Date:

Friday, August 23, 2013

  Actual Average Record
Temperature  
Mean Temperature 68 °F -  
Max Temperature 84 °F 67 °F 91 °F (2011)
Min Temperature 53 °F 43 °F 41 °F (2004)
Cooling Degree Days 4    
Growing Degree Days 18 (Base 50)    
Moisture  
Dew Point 61 °F    
Average Humidity 70    
Maximum Humidity 94    
Minimum Humidity 46    
Precipitation  
Precipitation 0.00 in 0.08 in - ()
Sea Level Pressure  
Sea Level Pressure 29.87 in    
Wind  
Wind Speed 8 mph ()    
Max Wind Speed 23 mph    
Max Gust Speed 33 mph    
Visibility 9.0 miles    
Events Rain , Thunderstorm    
Averages and records for this station are not official NWS values.
T = Trace of Precipitation, MM = Missing Value Source: Averaged Metar Reports

Daily Weather History Graph

Daily Weather History Graph

Search for Another Location

Airport:

Trip Planner

Search our weather history database for the weather conditions in past years. The results will help you decide how hot, cold, wet, or windy it might be!

Date:

Astronomy

Aug. 23, 2013 Rise Set
Actual Time 6:39 AM CDT 8:44 PM CDT
Civil Twilight 6:04 AM CDT 9:20 PM CDT
Nautical Twilight 5:19 AM CDT 10:04 PM CDT
Astronomical Twilight 4:28 AM CDT 10:54 PM CDT
Moon 9:34 PM CDT (8/23) 10:04 AM CDT (8/23)
Length of Visible Light 15h 15m
Length of Day
14h 04m
Waning Gibbous, 91% of the Moon is Illuminated
Aug 23
Waning Gibbous
Aug 28
Last Quarter
Sep 5
New
Sep 12
First Quarter
Sep 19
Full

Hourly Weather History & Observations

Time (CDT) Temp. Heat Index Dew Point Humidity Pressure Visibility Wind Dir Wind Speed Gust Speed Precip Events Conditions
12:00 AM 53.6 °F - 48.2 °F 82% 30.06 in 9.0 mi South 4.6 mph - N/A   Clear
1:00 AM 55.4 °F - 48.2 °F 77% 30.04 in 9.0 mi SSW 4.6 mph - N/A   Clear
2:00 AM 55.4 °F - 46.4 °F 72% 30.02 in 9.0 mi SSW 4.6 mph - N/A   Clear
3:00 AM 62.6 °F - 48.2 °F 59% 30.01 in 9.0 mi SSW 9.2 mph - N/A   Clear
4:00 AM 62.6 °F - 46.4 °F 55% 30.00 in 9.0 mi SSW 8.1 mph - N/A   Clear
5:00 AM 64.4 °F - 46.4 °F 52% 29.98 in 9.0 mi SW 12.7 mph - N/A   Clear
6:00 AM 66.2 °F - 44.6 °F 46% 29.97 in 9.0 mi SW 11.5 mph 17.3 mph N/A   Scattered Clouds
7:00 AM 62.6 °F - 46.4 °F 55% 29.97 in 9.0 mi Variable 5.8 mph - N/A   Mostly Cloudy
8:00 AM 68.0 °F - 51.8 °F 56% 29.94 in 9.0 mi SSW 9.2 mph - N/A   Partly Cloudy
9:00 AM 71.6 °F - 53.6 °F 53% 29.93 in 9.0 mi SSW 16.1 mph 25.3 mph N/A   Clear
10:00 AM 73.4 °F - 55.4 °F 53% 29.91 in 9.0 mi SSW 15.0 mph 24.2 mph N/A   Clear
11:00 AM 77.0 °F - 60.8 °F 57% 29.90 in 9.0 mi SSW 15.0 mph 25.3 mph N/A   Clear
12:00 PM 78.8 °F - 64.4 °F 61% 29.88 in 9.0 mi SSW 10.4 mph 18.4 mph N/A   Clear
1:00 PM 82.4 °F 85.4 °F 68.0 °F 62% 29.87 in 9.0 mi South 5.8 mph - N/A   Clear
2:00 PM 84.2 °F 87.3 °F 68.0 °F 58% 29.86 in 9.0 mi SSW 8.1 mph - N/A   Clear
3:00 PM 82.4 °F 85.4 °F 68.0 °F 62% 29.84 in 9.0 mi SSW 10.4 mph - N/A   Mostly Cloudy
4:00 PM 82.4 °F 85.4 °F 68.0 °F 62% 29.83 in 9.0 mi South 9.2 mph - N/A   Scattered Clouds
5:00 PM 82.4 °F 86.3 °F 69.8 °F 66% 29.81 in 9.0 mi South 6.9 mph - N/A   Overcast
6:00 PM 80.6 °F 83.2 °F 68.0 °F 65% 29.81 in 9.0 mi South 9.2 mph - N/A   Scattered Clouds
7:00 PM 80.6 °F 83.9 °F 69.8 °F 70% 29.80 in 9.0 mi South 4.6 mph - N/A   Clear
8:00 PM 77.0 °F - 68.0 °F 74% 29.79 in 9.0 mi South 5.8 mph - N/A   Mostly Cloudy
9:00 PM 75.2 °F - 68.0 °F 78% 29.80 in 9.0 mi SSE 5.8 mph - N/A   Overcast
9:02 PM 75.2 °F - 68.0 °F 78% 29.80 in 9.0 mi South 3.5 mph - N/A Rain Light Rain
10:00 PM 73.4 °F - 68.0 °F 83% 29.79 in 9.0 mi SSE 9.2 mph - N/A Rain Light Rain
10:04 PM 73.4 °F - 68.0 °F 83% 29.79 in 9.0 mi SE 9.2 mph - N/A Rain , Thunderstorm Light Rain
10:28 PM 73.4 °F - 68.0 °F 83% 29.77 in 9.0 mi SE 11.5 mph - N/A Rain , Thunderstorm Light Thunderstorms and Rain
10:43 PM 71.6 °F - 68.0 °F 88% 29.80 in 9.0 mi West 16.1 mph 25.3 mph N/A Rain , Thunderstorm Rain
10:55 PM 71.6 °F - 69.8 °F 94% 29.79 in 9.0 mi SW 8.1 mph - N/A Rain , Thunderstorm Thunderstorms and Rain
11:00 PM 71.6 °F - 68.0 °F 88% 29.80 in 9.0 mi SW 10.4 mph - N/A Rain , Thunderstorm Light Thunderstorms and Rain
11:10 PM 71.6 °F - 68.0 °F 88% 29.76 in 8.0 mi SSW 23.0 mph 33.4 mph N/A Rain , Thunderstorm Thunderstorms and Rain
11:23 PM 69.8 °F - 66.2 °F 88% 29.75 in 9.0 mi South 19.6 mph 29.9 mph N/A Rain , Thunderstorm Light Rain
11:36 PM 69.8 °F - 64.4 °F 83% 29.76 in 9.0 mi South 18.4 mph 26.5 mph N/A Rain Light Rain